This is the latest recevied weather packets stored in our database for station/object N9CQL. If no packets are shown the sender has not sent any weather packets the latest 10 day(s).
| Time | Temp. | Humidity | Pressure | Rain* | Wind** | Luminosity | Snow |
|---|---|---|---|---|---|---|---|
| 1777494141 | 10° C | 84% | 1013.2 hPa | 0 mm | - | 85 W/m² | - |
| 1777493838 | 10.56° C | 82% | 1012.9 hPa | 0 mm | - | 65 W/m² | - |
| 1777493537 | 10.56° C | 80% | 1013.1 hPa | 0 mm | - | 49 W/m² | - |
| 1777493234 | 10.56° C | 79% | 1012.9 hPa | 0 mm | - | 29 W/m² | - |
| 1777492930 | 11.11° C | 78% | 1012.8 hPa | 0 mm | - | 57 W/m² | - |
| 1777492627 | 11.67° C | 76% | 1012.8 hPa | 0 mm | - | 117 W/m² | - |
| 1777492322 | 10.56° C | 78% | 1012.8 hPa | 0 mm | - | 832 W/m² | - |
| 1777492019 | 11.11° C | 79% | 1013 hPa | 0 mm | - | 178 W/m² | - |
| 1777491716 | 11.67° C | 78% | 1012.9 hPa | 0 mm | - | 140 W/m² | - |
| 1777491413 | 11.67° C | 78% | 1013 hPa | 0 mm | - | 250 W/m² | - |
| 1777491110 | 12.22° C | 76% | 1012.9 hPa | 0 mm | - | 272 W/m² | - |
| 1777490805 | 11.67° C | 78% | 1012.9 hPa | 0 mm | - | 323 W/m² | - |
| 1777490502 | 11.11° C | 79% | 1012.7 hPa | 0 mm | - | 854 W/m² | - |
| 1777490198 | 10.56° C | 80% | 1012.9 hPa | 0 mm | - | 165 W/m² | - |
| 1777489896 | 10° C | 81% | 1012.7 hPa | 0 mm | - | 96 W/m² | - |
| 1777489593 | 10° C | 81% | 1012.9 hPa | 0 mm | - | 64 W/m² | - |
| 1777489290 | 10° C | 81% | 1013 hPa | 0 mm | - | 61 W/m² | - |
| 1777488987 | 10° C | 82% | 1012.8 hPa | 0 mm | - | 86 W/m² | - |
| 1777488684 | 10° C | 83% | 1012.9 hPa | 0 mm | - | 85 W/m² | - |
| 1777488381 | 10° C | 83% | 1012.4 hPa | 0 mm | - | 83 W/m² | - |
| 1777488080 | 10° C | 83% | 1012.6 hPa | 0 mm | - | 62 W/m² | - |
| 1777487777 | 10° C | 83% | 1012.4 hPa | 0 mm | - | 56 W/m² | - |
| 1777487475 | 10.56° C | 83% | 1012.5 hPa | 0 mm | - | 39 W/m² | - |
| 1777487172 | 10.56° C | 82% | 1012.5 hPa | 0 mm | - | 31 W/m² | - |
| 1777486868 | 10.56° C | 81% | 1012.2 hPa | 0 mm | - | 22 W/m² | - |
* Rain latest hour (hover to see other rain measurements)
** Current wind speed in m/s (hover to see current wind gust speed)